Regional Weather Roundup
Issued by NWS

Home | Current Version | Previous Version | Graphics & Text | Print | Product List | Glossary On
Versions: 1 2 3 4 5 6 7 8 9 10 11 12 13 14 15 16 17 18 19 20 21 22 23 24 25 26 27 28 29 30 31 32 33 34 35 36 37 38 39 40 41 42 43 44 45 46 47 48 49 50
000
ASUS43 KOAX 020102
RWRNE

WEATHER ROUNDUP FOR NEBRASKA
NATIONAL WEATHER SERVICE OMAHA NE
800 PM CDT TUE SEP 01 2015

NOTES: SATELLITE DATA IS BEING USED TO AUGMENT CLOUD COVER ABOVE
       12000 FEET.
       "FAIR" INDICATES FEW OR NO CLOUDS BELOW 12,000 FEET WITH NO
       SIGNIFICANT WEATHER AND/OR OBSTRUCTIONS TO VISIBILITY.

  * THESE STATIONS DO NOT REPORT WEATHER SUCH AS RAIN...SNOW OR FOG.

NEZ001>004-019>022-054>056-020200-
NEBRASKA PANHANDLE

CITY           SKY/WX    TMP DP  RH WIND       PRES   REMARKS
SCOTTSBLUFF    PTCLDY    81  55  40 E6        29.91S
ALLIANCE       CLEAR     82  47  29 SW7       29.90S
CHADRON        CLEAR     87  47  24 S3        29.83S
KIMBALL        PTCLDY    80  40  24 CALM      29.98S
SIDNEY         PTCLDY    83  40  21 S7        29.96S
$$

NEZ057>060-069>072-079>082-020200-
SOUTHWEST NEBRASKA

CITY           SKY/WX    TMP DP  RH WIND       PRES   REMARKS
NORTH PLATTE   CLEAR     80  66  62 SE6       29.88S
IMPERIAL       CLEAR     84  50  30 SE6       29.91F
LEXINGTON      CLEAR     84  65  53 SE9       29.89S
MCCOOK         CLEAR     87  58  37 SE6       29.88S
$$

NEZ005>010-023>029-035>040-094-020200-
NORTH CENTRAL NEBRASKA

CITY           SKY/WX    TMP DP  RH WIND       PRES   REMARKS
VALENTINE      CLEAR     86  59  39 SE13      29.83S
AINSWORTH      CLEAR     80  63  54 SE6       29.85F
BROKEN BOW     CLEAR     84  66  54 S8        29.88S
ORD            CLEAR     83  63  50 S8        29.85S
$$

NEZ041-046>049-061>064-073>077-083>087-020200-
SOUTH CENTRAL NEBRASKA

CITY           SKY/WX    TMP DP  RH WIND       PRES   REMARKS
GRAND ISLAND   PTCLDY    84  67  56 SE7       29.87S
AURORA         MOCLDY    82  66  58 S7        29.87S
HASTINGS       PTCLDY    86  67  52 CALM      29.88R
KEARNEY *      CLEAR     81  64  57 S7        29.88S
YORK           MOCLDY    82  66  57 S9        29.87S
$$

NEZ011>018-030>034-042>045-020200-
NORTHEAST NEBRASKA

CITY           SKY/WX    TMP DP  RH WIND       PRES   REMARKS
NORFOLK        PTCLDY    81  70  69 SE7       29.86R
BLAIR          MOCLDY    82  66  57 SE9       29.90R
COLUMBUS *     PTCLDY    81  64  57 S7        29.86S
FREMONT        PTCLDY    82  68  63 SE7       29.88S
TEKAMAH        PTCLDY    81  74  79 SE10      29.86F
$$

NEZ050>053-065>068-078-088>093-020200-
SOUTHEAST NEBRASKA

CITY           SKY/WX    TMP DP  RH WIND       PRES   REMARKS
LINCOLN        MOCLDY    84  64  50 S13       29.88S
OMAHA EPPLEY   MOCLDY    83  70  64 SE15      29.89S
FALLS CITY     PTCLDY    80  67  64 SE9       29.94R
$$

NEZ044-045-051>053-067-020200-
OMAHA AREA

CITY           SKY/WX    TMP DP  RH WIND       PRES   REMARKS
OMAHA EPPLEY   MOCLDY    83  70  64 SE15      29.89S
BLAIR          MOCLDY    82  66  57 SE9       29.90R
FREMONT        PTCLDY    82  68  63 SE7       29.88S
OFFUTT AFB     MOCLDY    81  71  72 SE10      29.88F
$$




USA.gov is the U.S. government's official web portal to all federal, state and local government web resources and services.